ATLAS 5 CENTAUR DEB, 44009

Orbit data source: Space-Track

ATLAS 5 CENTAUR DEB, 44009 is space debris in HEO originally from a launch on Wed, 17 Sep 2014 UTC launched from the Air Force Eastern Test Range (AFETR). Debris objects in space refer to the collection of defunct objects orbiting the Earth. Examples of debris include non-operational satellites, rocket bodies, and fragments generated from explosions, collisions, or faulty payload assembly.

Loading next visibility...
Identifier
44009, 2014-055BQ
Orbit
HEO
Country
Flag of USUS
Related business
Flag of USUnited Launch Alliance/Lockheed Martin (US)
Manufacturer
Unknown
Mission
Spacecraft
Bus & Motor
Unknown
Mass
Unknown
Launch date (UTC)
2014-09-17 (12 years ago)
Launch vehicle
Unknown
Launch site
Air Force Eastern Test Range (AFETR)
Object type
Payload
Rocket body
Debris
Shape & HBR
Unknown shape, 1.1 m
Radar Cross Section
Medium (>0.1 m² and <1 m²)

Expand to show TLE details & history
Last TLE update: 1 week ago

TLE from 1 week ago
0 ATLAS 5 CENTAUR DEB
1 44009U 14055BQ  26229.78508587 -.00000150  00000-0  00000-0 0  9998
2 44009  20.9171 101.1779 4981585 244.5794  56.5310  1.91632177 55131
Epoch: 2026-08-17T18:50Z
TLE epoch observation values (Epoch: 2026-08-17T18:50:31.419Z)
Latitude
-0.00001°
Longitude
-147.53144°
Altitude
19,826.335 km
Speed
3.983 km/s
True Right ascension
06h 45m 02s
True Declination
0° 00' 00"
Sunlit
Object was in daylight at epoch
Visualization orbit readout
Latitude
Unknown
Longitude
Unknown
Altitude
Unknown
Speed
Unknown
Apparent Right ascension
Unknown
Apparent Declination
Unknown
Sunlit
N/A
Visualization observer readout
Local Sidereal Time
03:26:42
Azimuth
Unknown
Elevation
Unknown
Doppler factor
Unknown
Orbital elements
Apogee altitude
34,643.461 km
Perigee altitude
7,362.959 km
Semi-major axis
27,381.347 km
Eccentricity
0.49816
Inclination
20.9171°
RAAN
101.1779°
Arg. of periapsis
244.5794°
True anomaly
115.41242°
Mean anomaly
56.531°
Eccentric anomaly
84.96316°
Mean motion
0.47903 °/min
Orbital period
751.52 mins
BSTAR
0
Loading maneuver chart data...
Computing Atmospheric mass density...

Documentation

Showing up to 5 results
|